Weather History for Dayton, OH

Change the Weather History Date:

Saturday, January 11, 2014

  Actual Average Record
Temperature  
Mean Temperature 43 °F 27 °F  
Max Temperature 51 °F 34 °F 59 °F (2013)
Min Temperature 35 °F 20 °F -8 °F (1977)
Degree Days  
Heating Degree Days 22 38  
Month to date heating degree days 467 412  
Since 1 July heating degree days 2586 2571  
Cooling Degree Days 0 0  
Month to date cooling degree days 0 0  
Year to date cooling degree days 0 0  
Moisture  
Dew Point 41 °F    
Average Humidity 86    
Maximum Humidity 93    
Minimum Humidity 79    
Precipitation  
Precipitation 0.37 in 0.09 in 2.08 in (2005)
Month to date precipitation 1.91 1.05  
Year to date precipitation 1.91 1.05  
Snow  
Snow 0.00 in 0.30 in 2.80 in (2011)
Month to date snowfall 8.1 2.7  
Since 1 July snowfall 22.7 8.2  
Snow Depth 0.00 in    
Sea Level Pressure  
Sea Level Pressure 29.59 in    
Wind  
Wind Speed 18 mph (SW)    
Max Wind Speed 32 mph    
Max Gust Speed 40 mph    
Visibility 8 miles    
Events Rain    
T = Trace of Precipitation, MM = Missing Value Source: NWS Daily Summary

Daily Weather History Graph

Daily Weather History Graph

Search for Another Location

Airport:

Trip Planner

Search our weather history database for the weather conditions in past years. The results will help you decide how hot, cold, wet, or windy it might be!

Date:

Astronomy

Jan. 11, 2014 Rise Set
Actual Time 7:57 AM EST 5:32 PM EST
Civil Twilight 7:27 AM EST 6:02 PM EST
Nautical Twilight 6:54 AM EST 6:35 PM EST
Astronomical Twilight 6:21 AM EST 7:08 PM EST
Moon 2:15 PM EST 4:01 AM EST
Length of Visible Light 10h 34m
Length of Day
9h 34m
Waxing Gibbous, 83% of the Moon is Illuminated
Jan 11
Waxing Gibbous
Jan 15
Full
Jan 24
Last Quarter
Jan 30
New
Feb 6
First Quarter

Hourly Weather History & Observations

Time (EST) Temp. Windchill Dew Point Humidity Pressure Visibility Wind Dir Wind Speed Gust Speed Precip Events Conditions
12:34 AM 50.0 °F - 46.4 °F 87% 29.70 in 8.0 mi South 12.7 mph - 0.01 in Rain Light Rain
12:56 AM 48.9 °F - 46.9 °F 93% 29.70 in 6.0 mi South 11.5 mph - 0.03 in Rain Light Rain
1:27 AM 50.0 °F - 48.2 °F 94% 29.67 in 7.0 mi South 12.7 mph - 0.02 in Rain Rain
1:56 AM 50.0 °F - 48.0 °F 93% 29.68 in 4.0 mi South 17.3 mph 31.1 mph 0.09 in Rain Rain
2:25 AM 50.0 °F - 48.2 °F 94% 29.65 in 5.0 mi South 12.7 mph - 0.08 in Rain Rain
2:56 AM 50.0 °F - 48.0 °F 93% 29.63 in 10.0 mi South 15.0 mph - 0.11 in Rain Light Rain
3:56 AM 50.0 °F - 48.0 °F 93% 29.61 in 7.0 mi South 18.4 mph 25.3 mph 0.06 in Rain Light Rain
4:56 AM 50.0 °F - 48.0 °F 93% 29.57 in 10.0 mi South 13.8 mph - 0.03 in   Overcast
5:56 AM 50.0 °F - 48.0 °F 93% 29.56 in 10.0 mi South 11.5 mph - 0.01 in   Overcast
6:56 AM 50.0 °F - 48.0 °F 93% 29.51 in 10.0 mi SSW 11.5 mph - 0.00 in Rain Light Rain
7:56 AM 50.0 °F - 48.0 °F 93% 29.50 in 10.0 mi SSW 12.7 mph - 0.01 in   Overcast
8:16 AM 50.0 °F - 48.2 °F 94% 29.47 in 1.0 mi SSW 13.8 mph - N/A   Overcast
8:49 AM 50.0 °F - 48.2 °F 94% 29.49 in 0.5 mi SSW 13.8 mph - 0.00 in Rain Light Rain
8:56 AM 50.0 °F - 48.9 °F 96% 29.49 in 0.5 mi SSW 12.7 mph - 0.00 in Rain Light Rain
9:39 AM 50.0 °F - 48.2 °F 94% 29.47 in 2.0 mi SSW 13.8 mph - 0.02 in Rain Light Rain
9:51 AM 50.0 °F - 48.2 °F 94% 29.47 in 3.0 mi SSW 15.0 mph 21.9 mph 0.03 in Rain Light Rain
9:56 AM 50.0 °F - 48.9 °F 96% 29.48 in 4.0 mi SSW 15.0 mph 21.9 mph 0.03 in   Overcast
10:07 AM 50.0 °F - 48.2 °F 94% 29.48 in 3.0 mi SW 16.1 mph - 0.00 in Rain Light Rain
10:51 AM 48.2 °F - 44.6 °F 87% 29.52 in 10.0 mi WSW 21.9 mph - 0.00 in   Overcast
10:56 AM 48.9 °F - 45.0 °F 86% 29.52 in 10.0 mi WSW 21.9 mph 29.9 mph 0.00 in   Overcast
11:56 AM 46.0 °F 36.9 °F 41.0 °F 83% 29.51 in 10.0 mi WSW 28.8 mph 34.5 mph 0.00 in Rain Light Rain
12:45 PM 44.6 °F 35.9 °F 39.2 °F 81% 29.50 in 10.0 mi West 23.0 mph 33.4 mph 0.00 in   Mostly Cloudy
12:56 PM 46.0 °F 36.9 °F 39.0 °F 76% 29.50 in 10.0 mi WSW 28.8 mph 39.1 mph 0.00 in   Mostly Cloudy
1:56 PM 42.1 °F 31.1 °F 35.1 °F 76% 29.52 in 10.0 mi West 31.1 mph 38.0 mph 0.00 in Rain Light Rain
2:12 PM 41.0 °F 32.2 °F 35.6 °F 81% 29.52 in 10.0 mi West 18.4 mph 29.9 mph 0.00 in   Overcast
2:56 PM 41.0 °F 31.9 °F 35.1 °F 79% 29.55 in 10.0 mi West 19.6 mph 27.6 mph 0.00 in   Overcast
3:56 PM 39.0 °F 28.5 °F 33.1 °F 79% 29.59 in 10.0 mi West 23.0 mph 28.8 mph N/A   Overcast
4:56 PM 37.0 °F 25.9 °F 33.1 °F 86% 29.62 in 9.0 mi West 23.0 mph 29.9 mph N/A   Overcast
5:56 PM 36.0 °F 25.6 °F 32.0 °F 86% 29.65 in 9.0 mi WSW 18.4 mph - N/A   Overcast
6:56 PM 36.0 °F 26.0 °F 30.9 °F 82% 29.68 in 10.0 mi West 17.3 mph - N/A   Overcast
7:19 PM 35.6 °F 24.8 °F 30.2 °F 81% 29.67 in 10.0 mi West 19.6 mph - N/A   Overcast
7:56 PM 35.1 °F 25.2 °F 30.0 °F 82% 29.71 in 10.0 mi West 16.1 mph 25.3 mph N/A   Overcast
8:56 PM 35.1 °F 24.8 °F 30.0 °F 82% 29.75 in 10.0 mi West 17.3 mph 23.0 mph N/A   Overcast
9:56 PM 35.1 °F 25.5 °F 30.0 °F 82% 29.77 in 10.0 mi WSW 15.0 mph - N/A   Overcast
10:56 PM 36.0 °F 27.1 °F 30.0 °F 79% 29.78 in 10.0 mi WSW 13.8 mph - N/A   Overcast
11:56 PM 36.0 °F 26.7 °F 30.9 °F 82% 29.79 in 9.0 mi WSW 15.0 mph - N/A   Overcast